[[{"header":{"parameterUnit":"m.s-1","parameterCategory":1,"la1":30.2991,"la2":30.254,"lo1":-89.0895,"lo2":-89.0444,"dy":0.0017,"dx":0.0017,"nx":28,"ny":28,"refTime":"2023-08-12T09:00:00:Z","depth":0,"parameterNumber":2,"parameterNumberName":"U-component_of_WINDS"},"data":[0,0,0,0,0,0,0,0,0,0,0,0,0,0,0,0,0,0,0,0,0,0,0,0,0,0,0,0,0,0,0,0,0,0,0,0,0,0,0,0,0,0,0,0,0,0,0,0,0,0,0,0,0,0,0,0,0,0,-0.1647,-0.1646,0,-0.1541,-0.1539,-0.1538,-0.148,-0.148,-0.148,-0.148,-0.1371,-0.1368,-0.1366,0,0,0,0,0,0,0,0,0,0,0,0,0,-0.18,-0.1798,-0.1647,-0.1645,-0.1644,-0.1541,-0.1539,-0.1538,-0.148,-0.148,-0.148,-0.148,-0.1372,-0.1369,-0.1365,0,0,0,0,0,0,0,0,0,0,0,0,0,-0.1718,-0.1797,-0.1647,-0.1603,-0.1598,-0.1541,-0.1539,-0.1538,-0.148,-0.148,-0.148,-0.148,-0.1373,-0.1369,-0.1365,-0.1344,0,0,-0.1352,-0.135,0,0,0,0,0,0,0,0,-0.1723,-0.1712,-0.1611,-0.1606,-0.16,-0.1523,-0.1554,-0.1473,-0.148,-0.1525,-0.148,-0.1479,-0.1422,-0.1414,-0.1394,-0.1339,-0.1334,-0.1352,-0.1349,-0.1348,-0.1346,0,0,0,0,0,0,0,-0.1728,-0.1716,-0.1605,-0.1609,-0.1603,-0.1589,-0.1577,-0.1538,-0.1476,-0.1521,-0.1516,-0.1505,-0.1419,-0.1398,-0.1391,-0.1333,-0.1352,-0.1348,-0.1346,-0.1344,-0.1256,-0.1256,0,0,0,0,0,0,-0.1741,-0.1722,-0.1608,-0.1602,-0.1662,-0.1586,-0.1573,-0.1548,-0.1476,-0.1465,-0.1505,-0.1502,-0.1406,-0.1396,-0.1387,-0.1359,-0.1348,-0.1344,-0.1341,-0.1256,-0.1256,-0.1256,0,0,0,0,0,0,-0.1745,-0.1731,-0.1612,-0.166,-0.1644,-0.1584,-0.1557,-0.1546,-0.1526,-0.1464,-0.1453,-0.1495,-0.1405,-0.1393,-0.1355,-0.1354,-0.1342,-0.1338,-0.1255,-0.1256,-0.1256,-0.1301,0,0,0,0,0,0,-0.1749,-0.1733,-0.1724,-0.1661,-0.1642,-0.1582,-0.1557,-0.1544,-0.1519,-0.1514,-0.1452,-0.1442,-0.1404,-0.1362,-0.1351,-0.1348,-0.1335,-0.1255,-0.1255,-0.1256,-0.1299,-0.1303,-0.1306,0,0,0,0,0,-0.1755,-0.1741,-0.1724,-0.1711,-0.1629,-0.1582,-0.1571,-0.1528,-0.1519,-0.151,-0.147,-0.1444,-0.1356,-0.1359,-0.1346,-0.1342,-0.1255,-0.1255,-0.1256,-0.1298,-0.1302,-0.1306,0,0,0,0,0,0,-0.1806,-0.1732,-0.1712,-0.1677,-0.1637,-0.1573,-0.156,-0.1534,-0.1495,-0.1493,-0.1441,-0.1427,-0.1395,-0.1364,-0.1368,-0.1318,-0.1303,-0.1301,-0.1339,-0.1343,-0.1346,-0.1354,-0.1332,0,0,0,0,0,-0.1813,-0.1781,-0.1718,-0.1693,-0.1674,-0.1621,-0.1598,-0.1569,-0.1524,-0.1507,-0.1465,-0.1423,-0.1386,-0.1362,-0.1325,-0.1295,-0.1281,-0.1286,-0.1289,-0.1292,-0.1291,-0.1273,-0.1275,-0.1257,-0.1257,-0.1257,0,0,-0.1828,-0.1783,-0.1766,-0.1702,-0.1667,-0.1635,-0.1606,-0.1573,-0.1549,-0.1502,-0.1464,-0.1432,-0.1381,-0.1348,-0.1331,-0.1321,-0.1292,-0.1292,-0.1295,-0.1292,-0.1274,-0.1275,-0.1277,-0.1257,-0.1257,-0.1257,0,0,-0.1838,-0.1801,-0.1777,-0.1742,-0.169,-0.1654,-0.1649,-0.1589,-0.1565,-0.1527,-0.149,-0.1461,-0.1398,-0.1364,-0.1339,-0.1338,-0.1312,-0.1327,-0.1343,-0.1327,-0.1328,-0.1329,-0.1329,-0.133,-0.1326,-0.1326,-0.1326,0,-0.1863,-0.1813,-0.1767,-0.1737,-0.171,-0.1666,-0.1641,-0.161,-0.1548,-0.1531,-0.1522,-0.1443,-0.1406,-0.1364,-0.1364,-0.1344,-0.1337,-0.1334,-0.1332,-0.1332,-0.1333,-0.1332,-0.1332,-0.1328,-0.1328,-0.1328,-0.1327,0,-0.1846,-0.1812,-0.1799,-0.1741,-0.1713,-0.1685,-0.1636,-0.1613,-0.1586,-0.1552,-0.1514,-0.1468,-0.1421,-0.1409,-0.1382,-0.1364,-0.136,-0.1342,-0.1325,-0.1337,-0.1336,-0.1335,-0.1331,-0.1331,-0.133,-0.1329,0,0,-0.1885,-0.1803,-0.1798,-0.1772,-0.1711,-0.1684,-0.1655,-0.1609,-0.1591,-0.155,-0.1525,-0.1473,-0.1457,-0.1428,-0.1397,-0.1383,-0.1385,-0.1366,-0.1364,-0.1372,-0.1363,-0.1377,-0.1378,-0.1368,-0.1368,-0.1368,-0.1367,0,-0.1887,-0.1833,-0.1791,-0.1753,-0.1721,-0.168,-0.1654,-0.1615,-0.1582,-0.1551,-0.1516,-0.148,-0.146,-0.1443,-0.1427,-0.1389,-0.1383,-0.1388,-0.1344,-0.1343,-0.1359,-0.1377,-0.1391,-0.1393,-0.1366,-0.1366,-0.1366,0,-0.1882,-0.1843,-0.1801,-0.1745,-0.173,-0.1708,-0.1663,-0.1634,-0.1588,-0.1566,-0.1534,-0.1503,-0.1471,-0.1458,-0.1413,-0.1418,-0.1397,-0.1376,-0.1375,-0.1369,-0.1356,-0.1372,-0.1393,-0.1393,-0.1365,-0.1365,-0.1365,0,-0.1915,-0.1852,-0.1819,-0.1798,-0.1731,-0.1716,-0.1688,-0.1642,-0.1617,-0.1578,-0.1562,-0.152,-0.1497,-0.1465,-0.1423,-0.1417,-0.1383,-0.1366,-0.1364,-0.1365,-0.1359,-0.136,-0.1377,-0.1345,-0.1345,-0.1345,-0.1345,0,-0.1922,-0.1898,-0.1834,-0.1814,-0.1786,-0.1739,-0.1713,-0.1681,-0.1641,-0.1614,-0.1575,-0.1551,-0.1497,-0.1467,-0.1433,-0.1402,-0.1392,-0.1373,-0.1365,-0.1377,-0.1379,-0.1363,-0.1362,-0.1345,-0.1345,-0.1345,-0.1345,0,-0.1955,-0.191,-0.1872,-0.1812,-0.1796,-0.1779,-0.1727,-0.1706,-0.1672,-0.1639,-0.1628,-0.1575,-0.1537,-0.1492,-0.1439,-0.1417,-0.1389,-0.1376,-0.1405,-0.14,-0.14,-0.1401,-0.1408,-0.1407,-0.1376,-0.1377,-0.1377,0,-0.1962,-0.1943,-0.1881,-0.186,-0.1833,-0.18,-0.1775,-0.1728,-0.1703,-0.1651,-0.1636,-0.1596,-0.1561,-0.1502,-0.1459,-0.1418,-0.1405,-0.141,-0.1398,-0.1411,-0.1405,-0.1407,-0.1405,-0.1413,-0.1413,-0.1414,-0.1414,0,-0.198,-0.1959,-0.1924,-0.1882,-0.1853,-0.1817,-0.178,-0.1766,-0.1712,-0.1686,-0.1647,-0.162,-0.1567,-0.1527,-0.1481,-0.1452,-0.1425,-0.1418,-0.1416,-0.1428,-0.1446,-0.1437,-0.1413,-0.1418,-0.1418,-0.1418,-0.1417,-0.1417,-0.2,-0.1982,-0.1935,-0.1898,-0.1865,-0.1832,-0.1809,-0.1773,-0.1739,-0.1692,-0.1667,-0.1629,-0.1584,-0.152,-0.1492,-0.1462,-0.1452,-0.1448,-0.1447,-0.1447,-0.1451,-0.145,-0.1453,-0.1453,-0.1453,-0.1453,-0.1453,0,-0.2017,-0.1985,-0.1951,-0.1901,-0.1872,-0.1848,-0.1806,-0.1783,-0.175,-0.1711,-0.1678,-0.1633,-0.1595,-0.1549,-0.1507,-0.1492,-0.1478,-0.1483,-0.1484,-0.1477,-0.1462,-0.1469,-0.1495,-0.1495,-0.1494,-0.1494,-0.1494,-0.1494,-0.2022,-0.199,-0.1963,-0.1915,-0.1883,-0.1845,-0.1823,-0.1792,-0.1761,-0.1713,-0.1681,-0.1651,-0.161,-0.1565,-0.1529,-0.1516,-0.1503,-0.1512,-0.1496,-0.1482,-0.1478,-0.1475,-0.1481,-0.1509,-0.1509,-0.1513,-0.1513,-0.1513]},{"header":{"parameterUnit":"m.s-1","parameterCategory":1,"la1":30.2991,"la2":30.254,"lo1":-89.0895,"lo2":-89.0444,"dy":0.0017,"dx":0.0017,"nx":28,"ny":28,"refTime":"2023-08-12T09:00:00:Z","depth":0,"parameterNumber":3,"parameterNumberName":"V-component_of_WINDS"},"data":[0,0,0,0,0,0,0,0,0,0,0,0,0,0,0,0,0,0,0,0,0,0,0,0,0,0,0,0,0,0,0,0,0,0,0,0,0,0,0,0,0,0,0,0,0,0,0,0,0,0,0,0,0,0,0,0,0,0,4.3888,4.3887,0,4.3832,4.3831,4.383,4.378,4.3779,4.3779,4.3778,4.3716,4.3715,4.3713,0,0,0,0,0,0,0,0,0,0,0,0,0,4.3947,4.3946,4.3888,4.3887,4.3886,4.3832,4.3831,4.383,4.378,4.3779,4.3778,4.3778,4.3716,4.3715,4.3713,0,0,0,0,0,0,0,0,0,0,0,0,0,4.3909,4.3946,4.3888,4.3855,4.3851,4.3832,4.3831,4.383,4.378,4.3779,4.3778,4.3777,4.3716,4.3715,4.3713,4.3721,0,0,4.3708,4.3707,0,0,0,0,0,0,0,0,4.3911,4.3907,4.386,4.3857,4.3853,4.3812,4.3829,4.3793,4.378,4.3807,4.3778,4.3777,4.3748,4.3744,4.3735,4.3718,4.3715,4.3708,4.3707,4.3706,4.3706,0,0,0,0,0,0,0,4.3914,4.3909,4.3865,4.386,4.3855,4.3841,4.3835,4.3822,4.3783,4.3804,4.3801,4.3795,4.3746,4.3737,4.3733,4.3714,4.3708,4.3706,4.3705,4.3705,4.37,4.3701,0,0,0,0,0,0,4.3922,4.3911,4.3867,4.3864,4.3881,4.3841,4.3834,4.3826,4.3783,4.3776,4.3796,4.3793,4.374,4.3735,4.3731,4.3737,4.3706,4.3705,4.3704,4.3699,4.37,4.3701,0,0,0,0,0,0,4.3924,4.3919,4.3869,4.3887,4.3879,4.3841,4.3832,4.3825,4.3816,4.3777,4.3769,4.3794,4.3739,4.3733,4.3724,4.3734,4.3704,4.3702,4.3698,4.37,4.3701,4.3749,0,0,0,0,0,0,4.3926,4.392,4.3923,4.3887,4.3879,4.3865,4.3833,4.3825,4.3814,4.381,4.3773,4.3766,4.3738,4.3727,4.3722,4.3731,4.3701,4.3697,4.3699,4.37,4.3746,4.3752,4.3756,0,0,0,0,0,4.3928,4.3938,4.3923,4.3918,4.3882,4.3866,4.3861,4.383,4.3815,4.3818,4.3792,4.3767,4.3734,4.3726,4.3721,4.3729,4.3696,4.3698,4.37,4.3744,4.3751,4.3756,0,0,0,0,0,0,4.3973,4.3932,4.3916,4.3915,4.3894,4.3857,4.3859,4.3838,4.382,4.3816,4.3777,4.377,4.3765,4.3746,4.3738,4.3734,4.3712,4.3713,4.3747,4.3753,4.3758,4.3762,4.37,0,0,0,0,0,4.3984,4.3975,4.3939,4.3941,4.3932,4.3898,4.3889,4.3868,4.3844,4.3835,4.3809,4.3786,4.377,4.376,4.3744,4.3744,4.3734,4.3747,4.3752,4.3756,4.3757,4.3755,4.376,4.3708,4.3708,4.3708,0,0,4.4004,4.3981,4.3977,4.395,4.3931,4.3922,4.3891,4.3882,4.3874,4.3833,4.3823,4.3803,4.3775,4.3771,4.3767,4.3755,4.377,4.3759,4.3762,4.3761,4.3758,4.3763,4.3767,4.3709,4.3709,4.3709,0,0,4.4037,4.4018,4.4018,4.4001,4.3975,4.3952,4.3952,4.3919,4.3904,4.3894,4.3863,4.3853,4.3827,4.3808,4.3795,4.3822,4.3798,4.3817,4.3843,4.3842,4.3847,4.385,4.3859,4.3863,4.3819,4.3819,4.3819,0,4.4065,4.4051,4.4021,4.4014,4.4003,4.3967,4.3966,4.3951,4.3919,4.3912,4.3899,4.3866,4.3844,4.3835,4.3842,4.3833,4.3831,4.3821,4.3849,4.3852,4.3855,4.3863,4.3867,4.3821,4.3821,4.3821,4.3821,0,4.4087,4.4078,4.4081,4.4054,4.4043,4.4039,4.4007,4.4,4.3979,4.3958,4.3948,4.3921,4.3898,4.3895,4.3874,4.3882,4.3876,4.3856,4.3833,4.3863,4.387,4.3873,4.3825,4.3824,4.3823,4.3823,0,0,4.4145,4.4103,4.4104,4.4092,4.406,4.4052,4.4047,4.4027,4.4021,4.4001,4.3994,4.3974,4.3956,4.3942,4.3918,4.3918,4.3941,4.3898,4.3897,4.3907,4.3948,4.3962,4.3967,4.3925,4.3925,4.3926,4.395,0,4.4172,4.4162,4.4135,4.4133,4.4124,4.409,4.4086,4.4065,4.4045,4.4034,4.401,4.3997,4.3975,4.3966,4.3964,4.3938,4.3948,4.3936,4.3917,4.3917,4.3925,4.397,4.3985,4.4009,4.3953,4.3953,4.3954,0,4.4202,4.4186,4.4184,4.4154,4.4149,4.4145,4.4125,4.4115,4.4091,4.4076,4.4061,4.4036,4.4027,4.4006,4.3993,4.3986,4.3976,4.3963,4.3963,4.3959,4.3937,4.3967,4.4016,4.402,4.3958,4.3957,4.3957,0,4.4245,4.4222,4.4218,4.4208,4.4173,4.4171,4.4156,4.4132,4.4122,4.4103,4.4096,4.4077,4.4066,4.405,4.402,4.4008,4.4011,4.3987,4.3997,4.3998,4.3998,4.3998,4.4046,4.3994,4.3994,4.3994,4.3993,0,4.4277,4.4277,4.4237,4.4234,4.4233,4.4201,4.42,4.4182,4.416,4.4152,4.4122,4.4115,4.4076,4.4064,4.404,4.4033,4.4028,4.4015,4.4009,4.4018,4.4019,4.401,4.4007,4.3994,4.3994,4.3994,4.3994,0,4.4324,4.4298,4.4291,4.4259,4.425,4.4251,4.4222,4.4218,4.4197,4.4187,4.4183,4.4149,4.4134,4.4103,4.4078,4.4062,4.406,4.4049,4.4069,4.4065,4.4076,4.4075,4.4119,4.4123,4.4069,4.407,4.407,0,4.4346,4.4345,4.4314,4.4308,4.4294,4.4284,4.4274,4.4243,4.4234,4.4207,4.4205,4.4188,4.4173,4.4149,4.4121,4.4102,4.409,4.4107,4.4087,4.4096,4.409,4.409,4.409,4.4111,4.4112,4.4112,4.4113,0,4.4388,4.4376,4.4363,4.4347,4.4337,4.4321,4.4305,4.4301,4.4265,4.4256,4.4241,4.4229,4.4205,4.4188,4.4165,4.4148,4.4124,4.412,4.4121,4.413,4.4141,4.4135,4.408,4.4119,4.4118,4.4118,4.4117,4.4117,4.4423,4.4421,4.4399,4.4386,4.4371,4.4356,4.4351,4.433,4.4317,4.4297,4.4279,4.4265,4.4241,4.4208,4.4193,4.4181,4.4169,4.4171,4.4171,4.4172,4.4176,4.4144,4.4176,4.4176,4.4176,4.4176,4.4176,0,4.4463,4.4448,4.4437,4.4415,4.4405,4.4386,4.4367,4.4359,4.4348,4.4329,4.4315,4.4298,4.4281,4.4253,4.4233,4.4229,4.4218,4.4225,4.4225,4.4221,4.4187,4.4188,4.4235,4.4235,4.4235,4.4235,4.4235,4.4235,4.4483,4.4479,4.4464,4.4451,4.4435,4.4423,4.4414,4.4399,4.4384,4.4367,4.4354,4.4336,4.4312,4.4291,4.4275,4.4267,4.4261,4.4272,4.426,4.4229,4.4223,4.4218,4.4218,4.4271,4.4271,4.4294,4.4295,4.4295]}]]